CAPE
439 375 450 412 125 188 297 293 248 25 0 24 42 20 0 0 0 0 0 0 0 0 0 27 27 26 4 0 0 0 0 0
297 498 185 56 81 259 244 231 51 10 18 33 47 2 0 0 0 0 0 0 0 0 0 7 5 4 0 0 0 0 0 0
695 441 98 126 123 209 306 212 7 29 17 2 0 0 0 0 0 0 0 0 0 0 0 0 2 3 0 0 0 0 0 0
371 167 129 203 104 155 254 142 14 25 48 26 2 0 3 0 0 0 0 0 0 0 0 8 7 5 0 0 0 0 0 0
281 271 556 190 167 223 285 139 19 91 136 76 2 22 0 0 0 0 0 0 0 0 0 1 3 0 0 0 0 0 0 0
229 538 819 455 175 260 250 71 79 143 147 76 1 32 0 0 0 0 0 0 0 0 0 0 1 3 0 0 0 0 0 0
281 493 715 559 228 181 160 142 165 175 112 27 11 34 0 0 0 0 0 0 0 0 0 0 0 0 0 1 1 0 0 0
351 464 394 542 388 209 216 241 210 168 96 19 19 8 0 0 0 0 0 0 0 0 0 0 0 0 0 0 0 0 0 0
412 392 428 752 673 425 335 238 222 145 56 13 33 1 0 0 0 0 0 0 0 0 0 0 0 0 0 0 0 0 0 0
384 458 498 641 664 752 455 261 192 114 31 3 43 0 0 0 0 0 0 0 0 0 0 0 0 0 0 0 0 0 0 0
505 469 470 468 421 403 490 304 264 77 25 0 44 0 0 0 0 0 0 0 0 0 0 0 0 0 0 0 0 0 0 0
733 500 377 263 424 417 428 410 341 102 25 1 37 0 0 0 0 0 0 0 0 0 0 0 0 0 0 0 0 0 0 0
749 637 321 128 301 353 403 550 428 152 68 24 19 0 0 0 0 0 0 0 0 0 0 0 0 0 0 0 0 0 0 0
696 511 372 252 410 467 409 447 380 171 130 53 0 1 6 12 5 0 0 0 0 0 0 0 0 0 0 0 0 0 0 0
821 685 291 246 321 502 509 399 265 194 135 40 21 29 43 21 9 7 0 0 0 0 0 0 0 0 0 0 0 0 0 0
767 788 365 298 289 316 440 312 269 243 159 98 91 76 81 43 3 4 4 0 0 0 0 0 0 0 0 0 0 0 0 0
565 575 587 214 219 232 212 382 314 304 190 183 171 136 85 43 0 0 6 0 0 0 0 0 0 0 0 0 0 0 0 0
564 474 501 422 214 199 226 268 381 396 257 199 160 147 121 16 0 0 0 0 0 0 0 0 0 0 0 0 0 0 0 0
519 441 419 401 170 164 182 302 371 336 282 209 175 149 133 2 0 0 0 0 0 0 0 0 0 0 0 0 0 0 0 0
CIN
-17 -8 -4 -3 -48 -28 -12 -3 -2 -86 -0 -36 -21 -32 -0 -0 -0 -0 -0 -0 -0 -0 -0 -44 -28 -21 -0 -0 -0 -0 -0 -0
-31 -0 -4 -46 -24 -9 -8 -1 -49 -78 -48 -33 -20 -5 -0 -0 -0 -0 -0 -0 -0 -0 -0 -64 -0 -0 -0 -0 -0 -0 -0 -0
-3 -4 -51 -39 -53 -2 -0 -3 -28 -48 -31 -19 -0 -0 -0 -0 -0 -0 -0 -0 -0 -0 -0 -0 -0 -0 -0 -0 -0 -0 -0 -0
-40 -47 -48 -24 -41 -39 -0 -17 -55 -34 -24 -40 -36 -0 -29 -0 -0 -0 -0 -0 -0 -0 -0 -0 -0 -0 -0 -0 -0 -0 -0 -0
-45 -57 -1 -15 -57 -5 -0 -17 -44 -17 -17 -21 -48 -68 -0 -0 -0 -0 -0 -0 -0 -0 -0 -0 -0 -0 -0 -0 -0 -0 -0 -0
-98 -37 -0 -0 -50 -6 -5 -10 -17 -18 -12 -33 -69 -47 -0 -0 -0 -0 -0 -0 -0 -0 -0 -0 -0 -0 -0 -0 -0 -0 -0 -0
-86 -33 -0 -0 -29 -29 -38 -18 -26 -14 -26 -100 -119 -53 -0 -0 -0 -0 -0 -0 -0 -0 -0 -0 -0 -0 -0 -0 -0 -0 -0 -0
-80 -40 -35 -7 -9 -31 -31 -19 -16 -20 -56 -133 -95 -39 -0 -0 -0 -0 -0 -0 -0 -0 -0 -0 -0 -0 -0 -0 -0 -0 -0 -0
-102 -82 -60 -0 -2 -7 -17 -33 -21 -39 -95 -132 -68 -11 -0 -0 -0 -0 -0 -0 -0 -0 -0 -0 -0 -0 -0 -0 -0 -0 -0 -0
-120 -94 -73 -28 -5 -1 -27 -40 -47 -71 -135 -95 -65 -0 -0 -0 -0 -0 -0 -0 -0 -0 -0 -0 -0 -0 -0 -0 -0 -0 -0 -0
-89 -95 -94 -73 -65 -50 -35 -36 -46 -60 -136 -0 -76 -0 -0 -0 -0 -0 -0 -0 -0 -0 -0 -0 -0 -0 -0 -0 -0 -0 -0 -0
-76 -133 -121 -52 -73 -62 -63 -53 -60 -54 -118 -29 -86 -0 -0 -0 -0 -0 -0 -0 -0 -0 -0 -0 -0 -0 -0 -0 -0 -0 -0 -0
-90 -96 -126 -46 -80 -109 -79 -35 -41 -70 -78 -61 -93 -0 -0 -0 -0 -0 -0 -0 -0 -0 -0 -0 -0 -0 -0 -0 -0 -0 -0 -0
-72 -95 -148 -76 -78 -120 -106 -71 -48 -81 -89 -30 -0 -10 -86 -85 -49 -1 -0 -0 -0 -0 -0 -0 -0 -0 -0 -0 -0 -0 -0 -0
-83 -110 -246 -222 -124 -107 -114 -99 -103 -97 -84 -61 -40 -50 -66 -96 -79 -69 -0 -0 -0 -0 -0 -0 -0 -0 -0 -0 -0 -0 -0 -0
-81 -103 -261 -268 -129 -160 -97 -80 -91 -77 -82 -69 -56 -53 -66 -85 -80 -92 -55 -0 -0 -0 -0 -0 -0 -0 -0 -0 -0 -0 -0 -0
-108 -112 -135 -83 -125 -203 -193 -98 -118 -80 -86 -65 -69 -70 -70 -107 -0 -0 -89 -0 -0 -0 -0 -0 -0 -0 -0 -0 -0 -0 -0 -0
-93 -144 -136 -160 -233 -127 -85 -100 -91 -58 -66 -63 -81 -68 -77 -67 -0 -0 -0 -0 -0 -0 -0 -0 -0 -0 -0 -0 -0 -0 -0 -0
-120 -129 -140 -139 -180 -121 -84 -82 -73 -64 -58 -66 -76 -76 -67 -55 -0 -0 -0 -0 -0 -0 -0 -0 -0 -0 -0 -0 -0 -0 -0 -0
Wind_Speed
31 25 31 35 29 24 21 26 30 nan nan nan nan nan nan nan nan nan nan nan nan nan nan nan nan nan nan nan nan nan nan nan
26 27 26 nan nan 27 21 24 nan nan nan nan nan nan nan nan nan nan nan nan nan nan nan nan nan nan nan nan nan nan nan nan
24 24 nan 29 20 28 19 19 nan nan nan nan nan nan nan nan nan nan nan nan nan nan nan nan nan nan nan nan nan nan nan nan
28 26 30 28 21 18 15 13 nan nan nan nan nan nan nan nan nan nan nan nan nan nan nan nan nan nan nan nan nan nan nan nan
32 29 27 23 22 17 7 15 nan nan 16 nan nan nan nan nan nan nan nan nan nan nan nan nan nan nan nan nan nan nan nan nan
31 29 28 21 20 19 18 nan nan 20 15 nan nan nan nan nan nan nan nan nan nan nan nan nan nan nan nan nan nan nan nan nan
33 34 31 25 21 23 23 19 22 22 20 nan nan nan nan nan nan nan nan nan nan nan nan nan nan nan nan nan nan nan nan nan
37 32 30 26 22 23 25 27 23 20 nan nan nan nan nan nan nan nan nan nan nan nan nan nan nan nan nan nan nan nan nan nan
30 29 29 25 24 23 23 20 20 20 nan nan nan nan nan nan nan nan nan nan nan nan nan nan nan nan nan nan nan nan nan nan
28 30 27 23 22 21 21 20 21 20 nan nan nan nan nan nan nan nan nan nan nan nan nan nan nan nan nan nan nan nan nan nan
27 22 19 18 20 20 24 20 22 nan nan nan nan nan nan nan nan nan nan nan nan nan nan nan nan nan nan nan nan nan nan nan
14 14 13 15 22 25 23 24 22 24 nan nan nan nan nan nan nan nan nan nan nan nan nan nan nan nan nan nan nan nan nan nan
14 13 16 21 23 25 21 21 21 22 nan nan nan nan nan nan nan nan nan nan nan nan nan nan nan nan nan nan nan nan nan nan
21 22 20 21 23 23 21 17 18 21 21 nan nan nan nan nan nan nan nan nan nan nan nan nan nan nan nan nan nan nan nan nan
19 23 21 21 22 21 19 15 18 19 20 nan nan nan nan nan nan nan nan nan nan nan nan nan nan nan nan nan nan nan nan nan
17 19 26 23 22 20 16 18 21 23 19 nan nan nan nan nan nan nan nan nan nan nan nan nan nan nan nan nan nan nan nan nan
28 23 29 23 23 22 22 20 20 23 27 29 27 25 nan nan nan nan nan nan nan nan nan nan nan nan nan nan nan nan nan nan
32 30 24 21 24 27 24 24 27 27 28 29 28 23 25 nan nan nan nan nan nan nan nan nan nan nan nan nan nan nan nan nan
47 32 25 26 26 27 29 27 26 26 24 25 26 24 26 nan nan nan nan nan nan nan nan nan nan nan nan nan nan nan nan nan
Wind_Direction
258 262 266 266 262 243 232 241 249 nan nan nan nan nan nan nan nan nan nan nan nan nan nan nan nan nan nan nan nan nan nan nan
245 257 265 nan nan 222 215 236 nan nan nan nan nan nan nan nan nan nan nan nan nan nan nan nan nan nan nan nan nan nan nan nan
245 260 nan 276 259 215 201 233 nan nan nan nan nan nan nan nan nan nan nan nan nan nan nan nan nan nan nan nan nan nan nan nan
252 268 263 286 309 228 199 240 nan nan nan nan nan nan nan nan nan nan nan nan nan nan nan nan nan nan nan nan nan nan nan nan
245 261 257 280 300 292 285 260 nan nan 274 nan nan nan nan nan nan nan nan nan nan nan nan nan nan nan nan nan nan nan nan nan
251 261 271 265 285 272 268 nan nan 280 277 nan nan nan nan nan nan nan nan nan nan nan nan nan nan nan nan nan nan nan nan nan
251 251 261 255 260 259 267 272 274 278 279 nan nan nan nan nan nan nan nan nan nan nan nan nan nan nan nan nan nan nan nan nan
254 257 261 258 262 269 270 275 270 273 nan nan nan nan nan nan nan nan nan nan nan nan nan nan nan nan nan nan nan nan nan nan
257 251 246 246 259 257 262 272 270 270 nan nan nan nan nan nan nan nan nan nan nan nan nan nan nan nan nan nan nan nan nan nan
252 247 244 245 247 265 260 258 263 264 nan nan nan nan nan nan nan nan nan nan nan nan nan nan nan nan nan nan nan nan nan nan
242 250 250 249 253 246 237 243 256 nan nan nan nan nan nan nan nan nan nan nan nan nan nan nan nan nan nan nan nan nan nan nan
243 227 230 230 230 241 236 236 257 257 nan nan nan nan nan nan nan nan nan nan nan nan nan nan nan nan nan nan nan nan nan nan
223 227 234 226 230 233 237 244 255 259 nan nan nan nan nan nan nan nan nan nan nan nan nan nan nan nan nan nan nan nan nan nan
219 226 217 222 224 226 237 248 262 265 267 nan nan nan nan nan nan nan nan nan nan nan nan nan nan nan nan nan nan nan nan nan
225 209 214 214 218 233 240 252 266 264 260 nan nan nan nan nan nan nan nan nan nan nan nan nan nan nan nan nan nan nan nan nan
212 221 214 214 224 232 238 252 257 257 263 nan nan nan nan nan nan nan nan nan nan nan nan nan nan nan nan nan nan nan nan nan
201 217 212 221 231 242 241 256 271 269 269 280 289 271 nan nan nan nan nan nan nan nan nan nan nan nan nan nan nan nan nan nan
218 205 217 227 235 238 244 256 261 274 274 279 281 280 273 nan nan nan nan nan nan nan nan nan nan nan nan nan nan nan nan nan
208 221 214 228 235 239 243 252 262 264 270 275 279 283 283 nan nan nan nan nan nan nan nan nan nan nan nan nan nan nan nan nan